Wind_Speed
63 56 47 42 40 39 37 36 35 33 32 31 30 30 32 33 37 44 50 55 65 77 83 85 87 89 91 93 93 92 90 89 88 86 86 88 90 95 102 110 121 130 135 137 134 130 133 134 132 132 121 98 92 95 92 90 92 93 97 101 101 102 99 93 91 98 102 100 97 94 93 97 101 102
63 56 48 43 42 41 40 39 37 35 33 31 31 30 32 32 33 37 44 49 57 68 78 84 86 89 91 93 94 94 92 90 90 88 86 86 88 91 96 103 113 124 129 134 138 133 131 134 134 134 128 107 94 94 92 91 93 94 94 96 98 101 101 98 93 94 100 104 104 99 93 93 97 101
63 57 50 46 45 44 43 42 40 38 35 32 31 31 31 32 32 33 37 43 50 60 69 79 86 89 91 93 94 95 94 92 91 90 88 86 86 87 91 96 104 115 122 127 136 138 134 133 134 136 133 116 101 97 95 92 95 99 98 96 96 98 101 103 100 95 96 100 104 105 100 94 93 97
65 58 51 48 47 46 45 45 42 39 36 33 31 30 30 30 31 31 33 37 44 53 61 71 81 88 91 93 94 95 95 94 92 91 90 87 86 86 87 91 97 107 114 119 128 137 138 135 133 134 135 125 111 105 101 96 95 100 104 103 101 100 103 108 108 104 99 96 99 105 106 102 97 95
65 60 52 48 48 47 47 46 43 38 34 31 29 27 27 27 28 30 31 34 39 46 54 63 73 84 90 92 94 95 95 96 95 92 91 89 86 85 85 86 91 99 107 111 120 130 135 135 134 132 132 128 118 112 111 108 104 104 105 108 109 109 110 113 113 110 105 98 95 99 106 107 104 99
65 59 52 48 48 49 48 45 40 34 29 25 23 22 22 23 24 26 29 32 36 40 48 57 65 75 86 91 94 95 94 95 97 94 91 89 87 85 83 83 85 92 101 105 112 122 128 132 133 133 131 129 122 116 113 112 110 107 104 105 111 116 117 115 112 110 109 104 97 95 100 105 106 105
64 59 52 48 48 48 47 41 34 27 22 19 17 17 17 18 19 22 25 29 34 37 42 51 59 67 77 87 92 95 95 95 96 96 93 90 88 85 83 82 81 85 93 100 106 114 122 127 130 132 132 131 127 121 115 110 107 102 98 98 106 114 117 113 108 108 108 108 101 95 96 102 104 105
64 59 52 48 48 48 44 35 27 20 16 16 15 15 16 16 17 19 21 25 30 34 38 44 53 61 69 79 88 94 95 95 95 96 95 91 88 85 83 81 80 80 84 92 100 107 115 123 127 129 131 132 130 127 122 114 108 102 95 93 100 110 115 111 107 105 106 107 105 97 94 98 102 103
64 60 53 48 47 46 39 28 20 16 16 16 17 17 18 18 18 20 20 23 26 30 34 39 46 55 62 70 80 90 95 95 94 94 95 94 89 85 84 81 79 78 79 84 91 99 107 116 122 125 127 130 131 130 128 123 116 109 99 92 94 103 110 110 108 106 105 105 105 99 94 95 99 102
63 60 53 47 47 44 35 24 17 16 16 18 19 20 21 22 23 24 24 23 25 26 30 34 39 48 56 62 71 83 92 94 94 92 92 94 91 86 83 81 80 78 77 78 82 89 97 105 114 119 121 124 127 128 129 128 123 116 107 98 93 96 102 106 107 106 105 104 103 99 94 92 95 99
63 61 53 47 46 42 31 21 16 15 17 19 20 21 21 23 25 26 25 24 24 24 25 29 34 40 48 55 63 74 85 91 93 92 91 91 92 89 85 81 80 79 78 76 76 81 87 94 102 111 113 115 119 123 124 126 126 122 115 106 98 94 96 100 103 104 105 105 104 100 96 92 92 96
63 61 54 46 44 40 29 20 15 14 16 16 18 20 21 24 28 29 28 26 24 24 22 23 27 33 40 47 55 65 76 84 90 92 91 89 89 90 87 82 79 79 78 76 74 74 78 84 91 100 106 108 111 115 118 118 120 122 121 115 106 98 94 96 99 102 104 106 105 102 98 94 92 93
63 60 54 46 43 39 29 19 15 15 16 17 18 21 25 27 30 32 32 28 23 20 18 18 20 25 32 39 48 57 66 75 85 90 91 88 86 86 86 83 80 78 78 76 74 72 72 76 82 89 97 102 103 106 110 112 113 117 119 118 113 105 98 95 96 100 103 105 106 104 100 96 93 91
62 60 55 47 42 39 30 20 15 15 17 19 22 26 28 29 30 33 33 28 20 16 13 13 15 19 26 32 39 48 56 65 76 85 88 88 85 83 83 83 80 78 77 76 73 71 69 70 74 81 88 94 97 98 101 105 108 111 114 116 115 111 104 98 95 99 103 104 106 106 102 98 95 92
61 60 55 47 41 38 30 21 15 15 17 20 24 27 29 30 31 33 32 26 16 10 8 7 8 13 20 26 31 38 46 56 66 77 83 86 85 82 80 80 80 78 76 74 72 70 68 67 69 73 80 87 92 94 94 95 101 105 108 112 114 112 109 105 99 99 102 104 105 105 104 101 97 94
60 58 55 48 41 37 30 21 15 14 17 21 24 26 28 29 31 32 28 20 11 9 10 10 8 10 15 19 23 29 37 47 57 68 76 81 83 82 78 77 77 77 75 73 71 69 68 66 65 67 73 79 86 89 90 90 93 99 102 107 112 113 112 111 106 101 102 105 105 104 104 104 101 97
60 57 55 48 41 38 31 22 15 14 16 20 24 25 27 29 31 29 21 12 10 12 12 10 10 9 10 14 18 23 31 40 49 60 69 76 79 80 77 74 73 74 74 72 70 69 68 66 63 63 66 72 79 84 88 89 90 94 98 101 108 112 112 113 113 108 104 105 105 103 104 105 104 100
60 56 54 48 41 38 33 23 14 13 15 18 21 23 25 28 29 23 13 11 12 12 10 9 11 8 5 12 14 18 27 35 44 54 63 70 74 76 75 73 72 72 72 72 70 68 67 65 62 60 61 67 74 79 83 86 88 91 96 99 104 110 113 114 117 115 110 107 106 103 102 105 106 103
61 56 53 48 41 37 34 24 13 11 13 15 20 22 23 26 26 15 12 14 13 11 10 10 11 5 6 12 12 15 23 32 41 50 59 64 68 72 73 72 70 70 70 71 69 67 66 64 60 58 59 64 71 75 77 80 82 83 89 94 100 106 111 114 118 119 117 112 109 105 101 101 104 104
62 55 52 49 41 36 34 26 13 9 11 14 19 21 21 25 23 12 15 16 14 13 12 11 10 5 9 10 9 13 20 28 38 48 54 59 63 68 70 70 69 67 67 68 68 66 65 62 59 57 58 63 69 73 74 77 78 79 83 88 93 100 106 111 116 120 120 117 114 110 104 100 100 102
63 56 51 49 42 35 33 27 14 7 9 12 18 21 21 23 19 13 16 16 14 13 11 8 7 6 9 9 7 12 18 21 32 45 51 55 59 64 66 67 67 66 66 67 67 66 63 61 59 57 57 61 69 73 73 76 79 82 84 85 85 90 97 103 110 117 120 119 117 115 111 104 100 100
64 58 51 49 43 34 32 28 14 5 6 11 16 19 19 21 16 12 15 15 13 11 9 8 6 6 11 13 11 11 16 16 24 39 49 51 56 61 64 65 66 64 64 65 66 64 63 60 59 57 56 59 68 72 72 74 79 83 84 84 83 84 88 93 101 108 114 116 116 116 115 110 104 101
64 60 53 49 45 36 31 28 16 4 4 9 12 16 17 17 12 9 15 13 13 11 12 10 7 7 12 15 13 9 12 14 20 33 44 48 53 58 61 63 64 64 64 65 65 63 62 60 57 57 56 57 65 72 72 72 76 80 81 82 83 83 85 88 94 101 107 110 112 114 116 114 109 104
64 62 54 49 47 39 31 28 18 6 1 6 9 12 15 14 8 8 13 11 13 14 13 11 9 11 14 16 14 11 11 13 17 27 37 44 49 54 57 58 60 62 63 64 64 62 60 59 56 55 55 55 61 70 72 71 74 76 77 79 80 81 84 87 90 95 100 104 105 109 113 114 111 106
62 62 56 49 47 43 33 28 21 10 3 3 6 8 11 12 6 8 10 9 13 14 11 9 10 13 16 18 18 17 15 13 12 18 28 36 44 50 53 54 55 58 58 60 61 60 58 57 56 54 53 53 59 67 70 70 71 74 77 79 79 79 81 84 86 89 93 97 98 101 106 110 111 107
61 61 58 50 46 44 36 28 23 14 5 5 3 5 7 11 7 7 7 7 10 11 11 9 8 11 15 19 21 21 20 17 13 13 20 29 37 43 49 52 53 55 55 56 58 58 56 55 54 52 51 51 56 63 67 67 68 70 74 76 77 79 80 81 83 86 88 90 92 94 99 104 107 107
59 60 59 53 46 44 39 30 24 19 9 7 5 4 5 8 8 7 9 5 7 9 12 13 11 9 10 16 20 22 23 23 18 13 16 24 32 37 43 47 50 52 53 55 56 56 55 53 52 50 49 49 52 59 64 65 64 66 69 70 71 76 79 78 79 82 84 85 87 90 95 99 103 104
57 58 58 54 46 43 40 33 24 21 14 7 8 6 6 5 7 7 11 8 6 9 10 12 13 12 9 11 18 22 23 24 23 17 15 17 23 31 37 41 45 48 51 54 55 55 53 52 50 48 47 47 50 55 60 62 61 61 63 65 67 71 77 78 77 77 79 82 84 88 92 95 98 101
56 57 56 53 47 41 40 36 27 21 17 9 9 9 8 6 5 7 11 11 8 10 10 8 11 14 12 10 15 20 21 20 22 22 20 18 20 25 32 35 39 43 46 49 52 53 51 50 48 47 46 46 47 51 57 59 58 55 57 62 65 67 73 77 75 73 75 78 80 83 87 90 93 97
54 55 55 53 48 41 38 38 31 23 18 13 7 11 11 9 7 8 11 12 12 12 10 8 10 15 15 13 14 18 18 15 15 19 23 23 23 25 28 31 35 39 43 45 48 50 49 48 46 45 44 44 45 48 53 57 57 55 54 57 62 65 69 74 75 72 72 74 77 79 82 85 88 92
52 53 53 52 49 42 36 35 34 26 19 15 9 9 14 12 10 10 12 14 16 14 10 9 12 15 16 16 17 17 17 16 14 15 18 22 23 24 26 29 32 37 40 42 44 45 45 44 43 42 42 42 43 45 49 54 58 57 54 54 58 61 65 70 73 73 71 72 75 78 79 81 83 87
50 51 51 51 50 47 39 34 33 30 22 16 12 6 11 15 14 13 13 16 19 17 12 12 14 15 16 18 19 19 18 18 19 20 20 20 20 20 22 27 31 34 37 38 40 41 42 41 40 40 40 41 42 43 46 51 56 57 56 54 55 58 61 65 70 72 71 70 72 76 78 79 80 83
49 49 50 51 51 50 45 37 33 32 27 19 14 9 5 14 17 16 15 18 22 20 16 15 17 17 17 18 19 19 18 19 21 24 24 23 21 19 19 24 28 31 34 35 36 38 39 38 38 38 38 40 42 43 45 49 53 55 55 56 56 56 58 62 66 70 72 71 70 72 75 77 79 80
48 48 49 51 51 51 48 41 35 33 31 24 16 11 6 6 16 19 18 19 22 23 21 19 19 20 19 19 20 20 20 20 22 24 25 25 23 21 20 21 24 28 31 32 33 34 35 35 36 37 38 39 41 44 45 48 51 52 53 55 56 55 55 58 63 67 70 70 69 70 72 74 76 79
46 47 48 49 50 50 48 44 38 33 31 28 21 14 9 5 7 17 21 21 22 24 25 23 22 22 22 21 20 21 21 22 23 24 25 26 25 24 23 22 23 25 28 30 31 31 32 32 32 34 36 38 40 42 43 45 48 50 52 54 55 54 53 55 60 64 68 69 69 69 70 71 74 76
44 45 46 47 48 49 48 45 40 34 30 29 26 19 11 8 4 6 17 22 23 24 25 26 26 25 24 23 22 22 23 24 25 25 26 27 27 26 25 25 25 25 27 29 30 31 30 29 29 31 33 36 39 40 41 43 45 49 52 55 55 54 52 53 57 62 66 68 69 68 68 70 71 73
43 44 45 46 46 47 47 46 43 38 32 28 27 24 17 10 6 4 5 15 22 25 26 27 29 29 27 25 24 24 25 26 27 28 28 28 28 27 27 27 27 28 28 29 30 31 31 30 29 30 31 34 37 40 40 41 43 47 51 54 52 50 50 52 54 58 61 65 68 69 68 69 71 72
42 42 43 44 45 45 46 46 44 41 35 30 26 25 22 16 9 5 4 3 12 21 26 27 29 32 32 30 28 27 27 27 28 29 30 29 29 29 29 29 29 30 30 31 31 31 32 32 32 31 32 33 35 38 40 40 41 44 49 51 48 46 47 49 51 54 57 60 64 67 69 70 71 72
41 41 41 41 43 44 44 44 44 43 39 34 28 25 23 20 15 8 5 3 2 9 20 26 30 32 34 34 32 30 30 30 30 31 31 31 31 31 31 31 31 31 31 32 33 33 34 34 34 34 34 34 35 36 38 39 41 43 46 47 46 44 45 47 49 50 53 56 60 63 67 70 72 72
40 40 39 39 40 41 42 43 43 43 41 38 33 28 24 21 19 15 9 5 3 1 8 18 27 32 34 36 36 34 32 32 32 33 33 33 33 33 33 32 32 32 32 33 33 34 35 36 36 36 36 36 36 36 37 38 39 41 43 44 43 42 43 45 46 47 50 53 56 60 64 67 70 72
39 39 38 38 38 38 40 41 41 41 41 39 36 31 27 23 20 17 14 9 5 2 1 7 18 27 33 36 38 37 36 35 34 35 35 36 36 35 35 34 33 33 33 33 34 35 35 36 37 37 37 37 38 37 37 37 37 38 39 40 41 40 40 42 44 46 47 50 53 56 59 63 67 70
38 38 37 36 36 36 37 38 39 39 39 39 37 34 30 26 21 17 15 13 9 5 2 2 8 17 27 34 38 40 39 38 37 37 37 38 38 38 37 36 35 34 34 34 34 35 35 36 37 38 38 39 39 39 39 38 38 37 37 38 38 38 39 39 41 43 45 47 50 53 55 57 61 65
37 37 37 36 35 35 35 36 37 37 38 38 37 35 32 29 25 21 17 14 11 8 4 2 3 9 17 27 35 40 41 41 40 40 39 39 40 40 40 39 38 37 36 36 35 35 36 36 37 38 39 39 40 40 40 40 40 40 39 38 38 38 38 39 39 40 42 44 47 49 52 54 56 59
36 36 36 35 35 34 34 34 35 36 36 37 37 36 34 31 28 25 21 17 13 10 6 3 3 5 10 17 26 35 40 43 43 42 42 42 41 41 41 41 41 40 39 38 38 37 37 37 38 38 39 39 40 41 41 42 42 42 41 40 40 40 40 40 40 40 40 42 43 45 48 51 53 55
35 35 35 35 34 34 33 33 33 34 35 35 35 35 35 34 31 27 24 20 16 12 9 5 2 4 7 11 17 25 33 40 44 45 45 44 44 44 43 43 43 43 42 41 41 40 39 39 39 40 40 40 41 41 42 42 43 43 43 43 42 42 42 42 41 41 41 41 42 43 45 48 51 53
Wind_Direction
346 344 340 337 335 331 327 322 316 312 305 296 289 280 270 257 243 235 233 231 228 225 225 226 227 227 226 224 223 222 222 222 221 220 220 220 220 219 218 216 215 215 214 213 212 210 212 214 215 215 212 204 196 195 197 199 203 207 213 218 221 221 220 221 220 217 217 218 219 219 219 219 219 219
347 345 342 338 337 334 330 326 321 315 309 300 290 282 273 264 252 240 233 233 232 227 224 225 226 227 226 225 224 222 221 221 221 220 220 220 219 219 219 218 216 216 216 215 214 213 211 212 214 215 213 208 201 199 199 200 203 207 210 214 219 222 222 222 222 221 220 219 220 219 219 219 219 219
348 347 344 341 339 336 332 328 324 319 313 305 294 284 276 268 260 249 235 230 234 232 226 223 224 226 227 226 225 223 221 220 221 221 220 220 220 219 219 219 217 217 218 217 215 216 214 212 212 213 214 211 207 205 204 204 206 210 213 214 216 220 223 224 224 223 222 221 221 220 219 220 220 220
350 348 346 343 340 337 333 329 325 321 314 307 298 288 280 272 263 256 243 231 232 235 230 225 223 224 226 226 225 224 222 221 220 220 220 220 220 219 219 219 218 217 218 218 217 217 217 216 213 212 213 212 210 209 209 209 209 212 215 216 216 217 221 224 226 225 223 223 222 221 220 220 220 221
350 349 346 343 340 337 334 330 326 323 317 310 303 293 285 277 267 258 249 237 233 235 233 228 225 223 224 226 226 224 223 222 220 219 220 220 220 220 219 219 218 217 218 219 218 218 219 219 217 214 213 212 211 210 211 213 214 214 215 216 218 219 221 224 226 226 225 223 223 222 221 221 221 221
350 350 346 343 341 338 335 332 329 326 322 316 311 302 293 285 275 263 254 243 236 237 236 231 228 225 223 223 225 225 224 223 221 219 218 219 220 220 219 219 218 217 217 218 218 219 220 221 220 218 216 214 214 212 210 210 213 213 212 212 215 218 222 224 225 225 224 223 223 223 222 221 221 221
350 350 348 344 343 341 338 336 333 331 331 331 328 321 311 301 290 276 263 251 241 238 239 234 229 228 225 222 223 225 225 223 222 220 218 218 219 220 220 219 219 218 217 217 218 219 220 222 222 221 220 219 217 215 210 207 208 209 209 211 213 215 219 221 221 221 221 221 222 223 222 222 221 221
351 351 349 347 345 344 342 340 339 343 349 351 346 338 329 317 305 292 277 265 251 241 241 240 233 229 228 224 222 223 225 224 223 221 219 217 217 218 220 220 219 219 218 217 218 218 219 222 223 224 223 223 221 219 215 212 210 210 211 212 213 214 216 218 218 218 218 219 221 222 222 222 222 222
352 352 351 348 347 346 345 343 347 356 1 359 354 347 340 330 320 312 300 284 268 251 244 244 239 232 229 227 224 223 223 224 223 221 219 217 216 216 219 220 220 220 220 218 217 218 218 220 223 224 225 225 225 223 221 219 217 215 214 213 213 214 215 216 217 216 217 217 219 221 221 221 222 222
352 353 352 350 349 349 347 345 351 1 3 360 355 350 344 337 330 324 317 305 289 269 253 248 244 237 231 228 226 224 222 222 223 222 220 218 216 214 216 218 220 220 220 220 218 218 218 219 221 224 225 226 226 226 226 225 223 221 218 215 213 214 215 216 216 216 217 217 218 219 220 220 221 222
353 354 353 351 350 351 348 345 353 1 2 360 353 346 341 335 331 326 323 316 301 285 267 253 247 242 235 229 227 226 223 221 222 223 221 218 216 214 213 215 218 220 220 220 219 218 218 219 221 223 225 226 227 227 228 228 227 225 222 219 216 214 215 216 216 217 218 218 218 219 219 219 221 222
353 354 354 351 351 353 348 343 351 357 357 354 345 341 339 338 335 331 328 324 309 292 278 262 250 244 239 232 227 227 224 221 220 221 221 219 216 214 213 213 215 218 219 220 219 218 218 219 220 222 224 226 226 227 228 229 229 228 226 223 220 217 216 217 218 218 218 218 219 219 219 219 220 221
354 354 354 352 352 353 348 342 347 354 352 345 340 342 343 343 340 335 333 332 319 300 285 269 253 242 238 233 228 226 225 221 219 218 220 220 218 215 213 212 214 216 218 219 219 218 218 219 220 221 223 225 226 227 228 228 228 228 228 227 224 221 219 218 218 218 218 219 219 219 219 219 219 220
354 354 354 353 352 352 348 340 344 355 350 341 344 348 346 345 342 336 336 338 330 312 292 272 253 240 235 232 228 226 224 221 219 217 217 218 218 216 213 212 213 215 217 218 218 218 218 218 220 221 222 223 225 226 227 227 227 228 228 229 227 224 222 220 219 219 219 218 219 219 219 219 219 219
354 354 354 354 353 353 348 338 339 351 346 343 350 350 345 344 342 337 338 344 343 338 334 312 273 244 232 228 227 224 221 220 218 216 214 214 216 216 213 212 212 213 215 217 217 217 218 218 219 220 221 221 223 224 225 226 226 227 227 228 228 227 224 222 221 220 219 219 218 219 219 219 219 219
355 354 354 353 354 354 349 338 336 341 341 346 352 349 344 345 344 341 344 353 12 36 32 9 321 262 231 222 222 220 217 216 215 214 212 211 213 214 214 212 211 211 213 215 216 216 217 218 218 219 220 220 221 222 223 224 225 226 226 226 227 228 226 224 223 222 221 220 219 220 220 220 220 220
356 355 354 353 354 355 351 342 339 339 340 349 353 350 347 347 346 346 353 17 51 50 32 0 317 280 229 207 209 212 211 210 210 210 209 208 209 211 212 212 211 211 211 212 214 215 216 217 217 218 219 219 219 219 220 222 223 224 225 225 226 227 227 226 225 224 223 222 221 221 221 221 221 221
358 356 355 354 354 355 353 346 343 343 342 350 356 354 352 352 351 354 17 61 64 44 20 339 317 306 212 187 194 204 204 203 203 203 203 204 206 207 209 210 211 210 210 210 212 213 214 216 216 217 217 217 217 216 217 218 220 223 225 226 225 226 227 227 226 225 225 224 223 222 221 221 222 222
360 357 357 356 354 355 355 350 345 348 349 356 1 359 358 358 357 10 67 74 57 41 20 348 338 348 157 168 180 195 196 195 197 198 198 200 202 203 205 207 209 209 209 209 210 211 213 215 215 215 217 216 215 214 214 214 216 218 221 224 225 225 226 227 226 226 227 226 225 223 221 221 222 223
2 359 357 358 356 355 357 354 347 353 1 7 8 5 5 5 7 43 86 72 54 47 31 8 5 56 138 156 174 186 186 188 192 193 194 196 199 200 201 204 207 208 208 208 209 210 212 214 214 214 216 216 213 212 212 212 212 212 215 219 223 224 225 226 226 227 228 228 227 225 223 223 223 223
3 0 359 359 358 356 358 357 351 357 15 21 18 14 11 10 19 71 90 68 54 51 44 34 31 71 116 117 125 159 169 180 190 191 191 194 196 197 198 201 204 205 206 207 209 209 211 212 213 214 215 215 213 211 211 211 210 210 211 213 216 219 222 223 224 226 227 228 228 227 226 225 224 224
3 2 360 1 0 358 359 0 355 354 31 36 27 23 21 15 23 85 95 63 49 57 69 77 64 80 106 98 92 136 161 171 186 190 191 193 194 195 197 199 201 202 204 205 207 208 209 211 212 213 215 215 213 211 210 210 209 210 211 211 212 215 217 219 221 223 226 228 228 228 228 227 226 225
3 2 1 1 2 1 1 4 360 341 52 54 36 32 35 21 18 98 105 66 52 75 91 94 87 92 107 101 90 118 160 170 181 189 192 193 193 194 196 198 199 200 201 203 205 206 208 210 211 213 215 215 213 211 211 210 208 210 212 212 213 214 215 216 218 220 223 226 227 228 228 228 227 226
2 3 2 1 3 3 3 6 3 337 125 79 50 42 43 26 19 120 117 69 52 77 97 110 116 116 119 117 111 114 133 153 174 187 192 194 194 194 195 198 200 201 201 202 203 204 206 209 210 213 215 215 213 211 211 210 208 209 210 211 212 214 214 215 216 218 220 223 225 226 227 227 226 225
2 3 2 2 3 3 4 7 5 345 247 134 70 59 53 39 49 142 128 67 51 70 94 125 137 133 133 132 130 128 123 129 159 181 188 194 195 194 194 196 199 201 203 203 204 204 206 208 210 212 215 215 213 211 211 211 209 208 208 209 210 212 214 214 215 216 218 220 223 224 225 226 225 224
3 3 2 2 3 4 5 7 6 355 287 218 117 94 74 52 68 158 151 78 58 71 90 118 143 148 150 146 141 139 137 139 149 164 177 190 195 195 195 196 197 199 201 203 204 204 206 208 210 212 214 215 214 213 212 212 211 209 209 209 208 209 212 214 214 215 216 217 220 221 222 223 224 224
4 3 2 2 3 4 5 5 5 1 328 246 206 142 113 69 74 157 174 124 79 85 95 107 120 134 153 158 152 143 141 145 151 153 163 180 193 196 195 196 198 199 199 201 203 204 206 208 210 213 215 215 214 214 213 213 212 212 212 212 209 206 208 211 213 214 215 215 215 217 219 221 222 222
5 4 4 3 2 4 6 6 4 2 350 281 228 188 154 111 84 139 181 174 116 109 113 112 118 124 132 152 158 153 146 145 148 152 151 161 181 192 194 194 198 200 201 201 202 203 205 208 211 213 215 216 215 214 214 212 212 213 213 214 212 208 206 207 209 211 213 214 214 215 217 219 220 221
5 6 6 4 2 2 6 8 6 4 0 329 245 212 182 162 123 134 175 185 152 135 145 138 128 134 138 142 155 162 164 156 152 156 158 155 164 181 189 191 195 198 201 202 202 203 206 208 210 213 215 216 215 214 214 212 211 213 213 213 213 211 208 207 208 208 210 212 213 215 216 217 219 220
6 6 7 5 4 3 4 8 8 6 4 354 285 227 202 184 168 158 170 179 169 161 168 162 138 138 147 153 152 156 167 174 168 166 170 171 171 177 183 187 191 195 199 201 203 204 206 209 211 213 215 215 214 213 214 212 211 212 213 211 212 212 211 210 210 210 210 210 211 214 215 216 217 218
7 7 6 5 6 6 5 7 10 9 6 3 340 248 216 199 185 181 181 178 176 177 179 166 150 145 152 160 160 158 164 173 176 175 176 178 181 183 183 186 191 194 197 199 202 204 207 209 211 213 214 214 212 211 212 213 212 213 213 212 211 213 213 212 212 212 212 212 212 213 214 215 215 217
6 7 5 5 7 9 9 9 12 13 10 8 2 312 230 211 196 190 191 186 183 186 188 175 164 160 160 163 166 169 170 169 171 175 177 180 183 185 184 186 189 192 196 199 202 205 207 209 212 214 214 213 210 208 210 213 213 214 214 213 212 213 215 216 214 213 213 213 213 214 214 214 214 215
4 5 5 5 8 10 11 11 12 14 14 12 9 0 270 224 209 198 195 192 189 191 194 189 181 176 170 167 168 170 169 164 164 167 171 177 182 183 184 185 186 189 193 197 201 206 208 210 212 213 214 212 209 207 209 211 213 214 214 214 214 214 215 217 218 216 214 213 213 213 214 214 214 214
2 3 4 7 8 10 12 12 11 14 16 15 12 10 355 248 220 210 202 197 195 196 196 194 190 186 179 172 170 170 168 163 159 160 165 173 178 181 184 185 185 188 192 196 201 206 209 210 211 211 211 210 207 207 209 210 211 213 214 214 216 218 217 217 218 218 217 216 214 213 213 214 214 214
0 1 4 7 9 10 12 13 12 12 14 16 15 12 9 352 240 222 214 207 202 200 199 196 192 190 187 181 174 171 168 166 163 163 167 171 175 179 181 184 186 189 193 196 200 204 207 209 209 209 208 206 205 207 209 211 212 213 213 214 217 220 220 217 215 215 216 217 216 214 213 213 213 213
359 360 3 6 8 10 12 13 14 13 12 14 17 15 9 9 351 241 224 219 214 208 204 201 197 193 191 189 182 175 172 171 170 169 169 171 173 175 179 183 186 189 193 195 198 200 202 204 205 205 204 203 204 206 209 212 213 214 213 213 215 219 220 218 215 214 214 215 216 216 214 213 213 213
358 359 2 5 7 9 11 13 15 15 13 13 15 17 15 9 4 352 244 226 223 219 214 208 203 199 196 193 189 183 179 177 176 175 174 173 173 174 178 182 186 189 192 195 197 198 200 201 203 204 204 203 204 206 208 211 213 214 213 213 215 217 219 219 217 215 214 213 213 214 215 214 213 213
357 359 1 3 5 7 10 12 14 16 16 15 14 16 18 16 7 356 351 261 229 225 222 216 210 204 200 197 194 191 187 183 181 180 179 177 176 177 179 182 186 189 192 195 197 198 200 202 203 205 206 206 207 208 209 210 212 213 213 214 216 217 218 217 217 216 215 213 211 211 212 213 213 213
356 358 1 3 4 5 8 11 13 15 16 17 16 15 16 18 17 7 350 347 286 230 225 221 216 210 204 201 199 197 193 189 186 185 184 183 182 183 183 185 187 190 193 195 197 199 200 202 204 205 206 208 209 210 211 211 212 213 214 216 217 218 217 216 216 216 216 215 212 210 210 212 213 213
354 357 359 1 3 4 6 9 12 14 15 16 16 16 15 16 17 17 8 349 345 299 227 221 218 215 210 206 203 201 199 196 192 190 189 189 189 189 188 188 190 192 194 196 198 199 201 202 203 204 205 207 208 210 212 213 213 214 214 216 217 217 216 215 215 215 215 215 214 212 211 212 213 213
353 356 358 0 2 3 5 7 10 13 15 16 16 16 16 16 16 16 14 6 348 341 274 220 218 217 214 211 209 207 204 202 199 196 195 195 195 194 193 192 192 193 195 196 198 200 201 202 203 204 205 206 207 209 211 212 214 215 216 217 217 217 216 215 214 214 215 214 214 213 212 212 213 213
352 355 357 359 0 2 4 5 7 10 14 16 17 16 16 16 16 16 16 14 5 347 327 233 215 215 216 215 214 212 210 208 205 203 201 201 200 199 199 198 197 197 197 198 199 200 201 202 203 204 205 205 206 207 209 210 212 213 215 216 217 218 218 217 215 215 215 215 214 213 212 212 212 212
351 354 355 357 359 0 2 4 5 8 11 14 17 18 17 16 14 14 15 16 14 5 343 296 230 216 215 216 216 217 216 215 212 210 208 207 205 204 203 203 202 201 201 201 201 201 202 203 203 204 205 206 206 206 207 209 210 212 212 213 214 217 219 219 218 217 216 216 216 215 213 212 210 210
350 353 355 356 357 358 0 2 3 5 8 10 14 17 18 18 16 14 13 12 13 12 3 330 267 234 221 217 217 218 220 220 219 217 215 213 211 210 208 207 206 206 205 205 204 204 204 204 205 205 206 206 207 207 207 208 209 211 211 211 211 213 216 218 220 219 218 217 218 218 216 213 211 209
348 351 353 355 356 356 358 360 1 3 5 7 10 13 16 18 19 17 15 12 10 7 5 355 307 252 235 227 222 221 221 222 224 224 223 221 218 216 214 212 211 210 209 208 207 207 207 207 207 208 208 208 208 208 209 209 210 210 211 211 211 211 213 215 218 219 219 219 218 219 218 216 213 210
Height
5235 5227 5220 5215 5210 5206 5201 5197 5194 5191 5188 5186 5185 5183 5182 5182 5185 5188 5191 5192 5193 5196 5202 5208 5212 5217 5223 5229 5236 5243 5251 5258 5265 5272 5279 5286 5294 5302 5310 5320 5330 5339 5349 5359 5369 5378 5389 5399 5408 5418 5428 5433 5437 5444 5454 5464 5472 5481 5489 5496 5503 5511 5518 5525 5533 5540 5547 5555 5564 5573 5582 5590 5599 5606
5232 5224 5217 5212 5207 5202 5197 5193 5189 5186 5183 5181 5179 5178 5176 5176 5178 5181 5185 5186 5185 5187 5194 5200 5203 5206 5212 5218 5224 5233 5242 5249 5256 5263 5271 5278 5286 5293 5300 5310 5320 5329 5339 5349 5359 5368 5378 5388 5398 5407 5418 5425 5430 5436 5444 5453 5463 5472 5479 5485 5493 5502 5510 5518 5526 5534 5541 5549 5557 5566 5575 5583 5592 5599
5229 5221 5214 5208 5202 5197 5192 5188 5184 5180 5178 5175 5173 5171 5170 5170 5171 5173 5177 5180 5178 5178 5185 5190 5193 5196 5200 5207 5215 5223 5232 5240 5247 5254 5263 5270 5277 5285 5292 5301 5311 5319 5329 5339 5349 5357 5366 5376 5387 5397 5407 5415 5421 5428 5436 5444 5452 5461 5469 5476 5484 5494 5502 5510 5518 5528 5536 5542 5549 5558 5567 5576 5584 5592
5224 5216 5209 5203 5198 5193 5188 5183 5179 5175 5172 5169 5167 5166 5165 5164 5165 5166 5169 5173 5171 5170 5175 5179 5183 5187 5191 5197 5205 5214 5222 5230 5238 5246 5254 5262 5269 5277 5285 5293 5302 5311 5320 5329 5339 5347 5355 5365 5375 5385 5396 5404 5412 5419 5427 5435 5443 5451 5460 5468 5476 5485 5492 5499 5508 5518 5527 5535 5542 5550 5558 5567 5576 5583
5220 5212 5206 5201 5195 5189 5184 5178 5174 5170 5166 5164 5162 5160 5159 5159 5159 5160 5162 5165 5165 5163 5165 5170 5173 5177 5182 5188 5195 5203 5212 5220 5228 5237 5246 5254 5262 5270 5278 5286 5294 5303 5312 5320 5330 5338 5345 5354 5364 5373 5384 5394 5402 5410 5418 5426 5435 5443 5452 5460 5468 5477 5483 5489 5500 5510 5519 5528 5535 5542 5550 5559 5567 5574
5219 5211 5205 5199 5193 5186 5180 5174 5170 5166 5163 5160 5158 5157 5156 5155 5154 5155 5155 5157 5158 5158 5157 5160 5165 5168 5173 5180 5186 5193 5203 5211 5218 5228 5238 5247 5256 5263 5272 5280 5288 5296 5304 5312 5321 5329 5336 5343 5353 5362 5372 5382 5391 5400 5408 5417 5426 5435 5444 5452 5460 5468 5476 5484 5494 5504 5512 5521 5528 5535 5543 5550 5558 5566
5219 5211 5203 5196 5190 5184 5178 5172 5167 5164 5161 5159 5157 5156 5154 5153 5151 5151 5150 5151 5152 5153 5151 5152 5157 5159 5164 5172 5178 5184 5193 5202 5209 5220 5231 5240 5249 5258 5265 5274 5281 5289 5297 5304 5312 5320 5328 5334 5342 5352 5361 5370 5379 5389 5398 5407 5417 5427 5436 5444 5452 5460 5469 5478 5487 5496 5503 5512 5521 5528 5535 5542 5550 5557
5218 5210 5202 5195 5188 5182 5176 5170 5167 5164 5162 5160 5158 5156 5154 5152 5150 5148 5147 5146 5146 5148 5147 5146 5149 5152 5156 5164 5170 5175 5183 5193 5201 5211 5223 5233 5243 5252 5260 5267 5275 5282 5289 5297 5304 5312 5320 5326 5333 5342 5350 5359 5369 5379 5388 5398 5408 5418 5427 5435 5443 5452 5461 5471 5479 5487 5495 5503 5512 5520 5527 5534 5541 5549
5216 5208 5200 5193 5187 5181 5175 5171 5167 5165 5162 5160 5158 5156 5154 5151 5149 5146 5145 5143 5142 5143 5143 5142 5143 5146 5149 5155 5161 5166 5174 5184 5193 5204 5215 5226 5237 5246 5254 5261 5269 5276 5281 5289 5297 5305 5313 5320 5326 5333 5342 5350 5359 5368 5378 5388 5398 5408 5418 5426 5435 5444 5453 5462 5471 5479 5486 5495 5504 5512 5520 5527 5533 5540
5214 5206 5199 5192 5186 5180 5175 5171 5168 5165 5163 5161 5158 5156 5153 5151 5148 5146 5143 5141 5139 5138 5138 5137 5137 5139 5142 5148 5153 5157 5166 5176 5186 5197 5207 5219 5230 5240 5248 5255 5263 5269 5275 5282 5290 5298 5306 5314 5320 5326 5333 5341 5350 5359 5368 5377 5387 5398 5409 5418 5427 5436 5445 5454 5462 5470 5478 5486 5495 5504 5512 5519 5526 5532
5212 5205 5197 5191 5185 5179 5175 5171 5168 5166 5164 5161 5159 5156 5154 5151 5148 5145 5142 5139 5136 5134 5133 5132 5132 5134 5136 5141 5145 5149 5157 5169 5179 5189 5199 5210 5221 5231 5240 5248 5255 5262 5268 5275 5283 5291 5298 5306 5312 5318 5324 5332 5340 5349 5358 5367 5377 5388 5399 5410 5419 5428 5436 5445 5453 5462 5470 5479 5487 5496 5504 5511 5518 5525
5211 5203 5196 5190 5184 5179 5175 5172 5169 5166 5164 5162 5160 5157 5154 5150 5147 5143 5140 5137 5133 5130 5129 5128 5128 5129 5131 5135 5138 5141 5149 5161 5171 5180 5190 5201 5213 5224 5234 5243 5249 5255 5262 5269 5276 5284 5291 5298 5304 5311 5317 5323 5331 5340 5349 5358 5367 5378 5389 5401 5412 5421 5429 5437 5445 5453 5462 5471 5479 5488 5496 5503 5511 5517
5209 5202 5196 5189 5184 5178 5175 5172 5169 5167 5164 5162 5160 5156 5153 5149 5146 5141 5137 5134 5130 5127 5126 5124 5124 5125 5126 5128 5132 5135 5142 5152 5162 5171 5182 5195 5207 5217 5228 5237 5244 5250 5257 5264 5271 5279 5286 5292 5298 5304 5311 5317 5325 5333 5341 5350 5359 5369 5379 5391 5403 5414 5422 5429 5437 5445 5454 5463 5472 5480 5488 5496 5503 5510
5208 5202 5195 5189 5183 5178 5174 5171 5169 5166 5164 5162 5159 5155 5152 5149 5145 5140 5136 5132 5128 5125 5124 5122 5121 5121 5122 5124 5127 5131 5137 5145 5154 5164 5176 5190 5200 5209 5221 5231 5239 5246 5252 5259 5267 5274 5281 5287 5292 5298 5305 5312 5319 5325 5333 5342 5352 5362 5372 5382 5394 5405 5414 5422 5429 5438 5446 5455 5464 5473 5480 5488 5495 5502
5208 5201 5194 5189 5183 5178 5174 5171 5168 5166 5164 5162 5159 5156 5152 5149 5144 5140 5135 5131 5128 5125 5124 5122 5121 5120 5120 5121 5124 5128 5133 5140 5148 5158 5170 5183 5193 5203 5214 5224 5233 5241 5248 5256 5263 5271 5276 5282 5287 5293 5300 5307 5313 5320 5328 5337 5345 5355 5364 5373 5383 5395 5405 5413 5421 5430 5439 5448 5457 5465 5472 5480 5487 5494
5209 5201 5194 5189 5183 5178 5174 5171 5168 5166 5164 5162 5159 5156 5153 5149 5144 5139 5135 5132 5129 5128 5127 5125 5122 5120 5120 5121 5123 5126 5130 5135 5143 5152 5164 5176 5187 5197 5209 5219 5227 5236 5243 5251 5259 5266 5271 5277 5282 5289 5295 5301 5308 5316 5324 5330 5337 5345 5354 5364 5373 5384 5395 5404 5413 5422 5431 5439 5448 5457 5464 5472 5479 5486
5210 5202 5195 5188 5183 5178 5174 5171 5168 5166 5164 5162 5160 5157 5153 5149 5144 5139 5136 5134 5132 5131 5131 5128 5124 5122 5121 5121 5123 5125 5128 5133 5139 5148 5159 5171 5182 5193 5205 5215 5222 5230 5237 5245 5253 5260 5266 5272 5278 5284 5291 5297 5303 5310 5317 5323 5329 5336 5345 5355 5365 5374 5385 5395 5404 5413 5422 5431 5440 5448 5456 5463 5471 5478
5211 5203 5196 5189 5183 5178 5173 5170 5168 5166 5165 5163 5161 5158 5154 5149 5145 5140 5138 5136 5136 5136 5134 5131 5127 5124 5123 5124 5124 5125 5128 5132 5137 5145 5155 5167 5178 5190 5201 5209 5216 5223 5231 5240 5248 5254 5261 5267 5274 5281 5286 5291 5297 5304 5310 5317 5324 5330 5337 5346 5355 5365 5375 5385 5395 5404 5413 5423 5432 5440 5448 5455 5463 5471
5211 5204 5197 5190 5183 5178 5174 5170 5168 5167 5165 5164 5161 5158 5155 5151 5146 5143 5141 5140 5140 5140 5138 5134 5130 5128 5127 5127 5127 5128 5129 5133 5138 5144 5153 5164 5175 5185 5195 5204 5212 5221 5229 5236 5243 5250 5257 5264 5271 5278 5282 5286 5292 5298 5304 5311 5318 5325 5332 5339 5346 5356 5365 5376 5386 5396 5404 5414 5424 5432 5440 5448 5455 5463
5212 5204 5197 5190 5184 5179 5174 5170 5168 5167 5166 5164 5162 5159 5156 5152 5148 5146 5145 5145 5144 5143 5141 5137 5134 5132 5131 5131 5130 5131 5133 5136 5140 5146 5154 5164 5173 5183 5192 5201 5210 5218 5226 5234 5240 5248 5254 5261 5268 5274 5277 5281 5287 5292 5299 5306 5313 5320 5327 5333 5339 5348 5357 5367 5378 5388 5397 5406 5416 5425 5433 5441 5448 5455
5213 5206 5199 5192 5185 5180 5175 5171 5168 5167 5167 5165 5163 5160 5157 5154 5152 5150 5149 5148 5148 5146 5144 5142 5139 5137 5136 5136 5135 5135 5138 5141 5144 5150 5157 5164 5173 5182 5191 5199 5207 5215 5223 5230 5237 5244 5251 5258 5264 5269 5273 5277 5282 5288 5294 5301 5308 5315 5322 5328 5334 5342 5350 5360 5370 5381 5389 5397 5407 5417 5425 5433 5441 5448
5213 5207 5200 5194 5187 5181 5176 5172 5169 5168 5167 5166 5164 5162 5159 5157 5155 5153 5152 5151 5150 5149 5147 5145 5143 5142 5141 5141 5140 5141 5143 5145 5148 5153 5159 5165 5173 5180 5188 5195 5203 5211 5218 5225 5233 5241 5248 5255 5260 5265 5269 5273 5278 5284 5290 5296 5303 5309 5316 5323 5329 5337 5345 5354 5363 5373 5382 5389 5398 5408 5417 5425 5433 5439
5213 5207 5201 5194 5188 5182 5177 5173 5170 5169 5168 5167 5166 5164 5162 5159 5158 5157 5155 5154 5153 5151 5150 5149 5147 5147 5146 5146 5145 5147 5148 5150 5152 5156 5161 5167 5173 5180 5186 5193 5200 5207 5214 5221 5229 5238 5245 5251 5256 5261 5265 5270 5275 5281 5286 5292 5298 5305 5311 5318 5325 5332 5340 5347 5355 5364 5373 5381 5389 5398 5408 5416 5425 5432
5214 5207 5201 5195 5188 5183 5178 5173 5170 5169 5168 5168 5167 5165 5164 5162 5161 5159 5157 5156 5155 5154 5153 5152 5152 5151 5151 5150 5150 5152 5154 5155 5157 5160 5164 5170 5175 5181 5187 5194 5201 5207 5213 5220 5228 5235 5242 5247 5253 5257 5262 5266 5271 5277 5283 5289 5295 5301 5307 5314 5320 5327 5333 5340 5348 5356 5365 5373 5380 5389 5398 5407 5416 5425
5215 5208 5201 5195 5189 5183 5178 5174 5171 5170 5169 5168 5167 5166 5165 5164 5162 5161 5160 5158 5157 5156 5156 5156 5156 5155 5155 5155 5155 5157 5159 5160 5162 5165 5168 5172 5177 5183 5189 5195 5202 5209 5215 5221 5228 5234 5239 5245 5250 5254 5259 5263 5268 5273 5278 5284 5290 5296 5302 5309 5315 5322 5327 5334 5341 5349 5357 5365 5373 5381 5390 5399 5408 5418
5216 5209 5203 5197 5191 5184 5179 5175 5172 5170 5169 5169 5168 5167 5166 5165 5164 5163 5162 5161 5160 5159 5158 5158 5159 5159 5159 5159 5159 5160 5162 5165 5167 5169 5171 5175 5179 5184 5189 5195 5201 5208 5214 5220 5226 5232 5237 5242 5247 5251 5256 5260 5264 5269 5274 5279 5285 5291 5297 5303 5309 5316 5322 5328 5335 5342 5349 5358 5366 5375 5383 5391 5399 5409
5218 5211 5204 5197 5191 5186 5180 5176 5173 5171 5169 5169 5169 5168 5167 5166 5165 5165 5164 5163 5163 5162 5162 5161 5162 5162 5162 5163 5163 5164 5165 5167 5170 5172 5174 5176 5180 5185 5191 5196 5202 5207 5212 5218 5224 5230 5235 5240 5244 5249 5253 5257 5260 5265 5270 5276 5281 5286 5292 5298 5303 5309 5316 5322 5329 5335 5342 5350 5358 5366 5374 5381 5389 5399
5221 5213 5205 5198 5193 5188 5183 5178 5174 5172 5170 5169 5169 5168 5168 5167 5166 5166 5165 5165 5165 5165 5165 5164 5165 5165 5166 5167 5167 5167 5168 5170 5172 5175 5177 5179 5182 5186 5191 5196 5202 5207 5211 5216 5222 5227 5233 5237 5242 5246 5250 5253 5257 5262 5267 5273 5278 5283 5288 5293 5298 5303 5310 5317 5323 5329 5336 5343 5350 5357 5365 5373 5381 5390
5223 5216 5209 5202 5196 5191 5185 5180 5176 5173 5170 5169 5168 5168 5168 5168 5167 5166 5166 5167 5167 5167 5167 5167 5167 5167 5168 5169 5170 5171 5172 5173 5174 5177 5180 5182 5184 5187 5191 5196 5201 5206 5211 5216 5221 5226 5230 5235 5239 5243 5247 5250 5255 5259 5264 5269 5275 5280 5284 5288 5293 5299 5305 5311 5317 5323 5330 5337 5343 5350 5358 5366 5373 5381
5225 5218 5212 5206 5199 5192 5187 5182 5177 5174 5171 5169 5168 5168 5168 5168 5168 5167 5167 5167 5168 5168 5168 5168 5168 5169 5170 5171 5172 5173 5174 5175 5177 5179 5181 5184 5186 5189 5192 5196 5200 5204 5209 5214 5219 5224 5228 5232 5236 5240 5244 5248 5252 5256 5261 5266 5271 5275 5280 5285 5290 5294 5300 5306 5312 5318 5324 5330 5337 5344 5350 5357 5364 5372
5227 5220 5215 5210 5204 5196 5190 5184 5179 5175 5172 5170 5168 5167 5168 5168 5168 5168 5168 5168 5168 5168 5169 5169 5170 5170 5171 5173 5174 5175 5176 5177 5179 5181 5183 5185 5187 5190 5193 5197 5200 5204 5208 5213 5218 5222 5226 5231 5235 5238 5242 5245 5249 5254 5258 5263 5267 5272 5277 5281 5286 5291 5296 5302 5307 5313 5318 5324 5330 5336 5342 5349 5356 5364
5228 5223 5219 5213 5206 5199 5193 5187 5181 5177 5173 5171 5168 5167 5167 5168 5168 5168 5169 5169 5169 5169 5169 5170 5170 5171 5172 5173 5175 5176 5177 5178 5180 5182 5184 5186 5188 5191 5194 5197 5200 5204 5208 5212 5217 5221 5225 5229 5233 5236 5239 5243 5246 5251 5255 5259 5264 5269 5274 5278 5283 5288 5293 5297 5302 5307 5312 5317 5323 5329 5336 5342 5350 5357
5228 5224 5220 5214 5206 5199 5193 5187 5183 5178 5174 5172 5169 5168 5167 5167 5168 5168 5169 5169 5169 5169 5170 5170 5171 5172 5173 5174 5175 5176 5178 5179 5180 5183 5185 5187 5189 5192 5194 5197 5200 5204 5208 5212 5215 5219 5223 5227 5230 5234 5237 5240 5244 5248 5252 5256 5260 5265 5270 5274 5279 5284 5288 5293 5297 5302 5306 5311 5317 5323 5330 5336 5343 5350
5229 5225 5220 5213 5206 5199 5193 5188 5184 5180 5176 5173 5171 5169 5167 5167 5167 5168 5169 5169 5170 5170 5170 5171 5171 5172 5173 5174 5175 5177 5178 5179 5181 5183 5185 5187 5190 5192 5194 5197 5200 5203 5207 5210 5214 5218 5221 5225 5228 5231 5234 5238 5241 5245 5249 5253 5257 5261 5266 5271 5275 5280 5284 5288 5293 5297 5302 5307 5312 5317 5323 5330 5336 5343
5230 5225 5220 5214 5208 5202 5196 5190 5185 5181 5178 5175 5172 5170 5168 5167 5167 5167 5168 5169 5170 5170 5170 5171 5172 5172 5173 5174 5175 5177 5178 5180 5181 5183 5185 5187 5190 5192 5194 5197 5200 5203 5206 5209 5212 5216 5219 5223 5226 5229 5232 5235 5239 5242 5246 5250 5254 5258 5263 5267 5272 5276 5280 5284 5288 5292 5297 5302 5307 5312 5317 5323 5330 5336
5231 5226 5220 5215 5210 5205 5199 5193 5188 5183 5180 5176 5173 5171 5169 5167 5167 5166 5167 5168 5169 5170 5171 5171 5172 5172 5173 5174 5175 5176 5178 5180 5182 5183 5185 5187 5189 5192 5194 5197 5199 5202 5205 5208 5211 5214 5217 5221 5224 5227 5230 5233 5236 5240 5244 5247 5251 5255 5259 5263 5268 5272 5276 5279 5283 5287 5291 5296 5302 5307 5313 5318 5324 5331
5231 5226 5221 5216 5211 5207 5202 5196 5191 5186 5182 5178 5175 5172 5170 5168 5167 5166 5166 5166 5167 5169 5170 5171 5172 5172 5173 5174 5175 5176 5178 5179 5181 5183 5185 5187 5189 5191 5194 5196 5198 5201 5204 5206 5210 5213 5216 5219 5222 5225 5228 5231 5234 5237 5241 5244 5248 5251 5255 5259 5263 5267 5270 5274 5278 5282 5287 5291 5297 5302 5308 5313 5319 5325
5232 5227 5221 5217 5212 5208 5203 5199 5194 5189 5184 5180 5177 5174 5171 5169 5168 5166 5166 5166 5166 5167 5168 5170 5171 5172 5173 5173 5175 5176 5177 5179 5181 5182 5184 5186 5188 5190 5193 5195 5197 5200 5202 5205 5208 5211 5214 5217 5220 5223 5226 5229 5232 5235 5238 5241 5245 5248 5252 5256 5259 5263 5266 5269 5273 5277 5281 5286 5291 5296 5302 5307 5312 5317
5232 5227 5222 5218 5213 5209 5204 5200 5195 5191 5186 5182 5179 5176 5173 5171 5168 5167 5166 5165 5165 5165 5166 5168 5170 5171 5172 5173 5174 5175 5177 5178 5180 5181 5183 5185 5187 5189 5191 5194 5196 5198 5201 5204 5206 5209 5212 5215 5218 5221 5223 5226 5229 5232 5235 5238 5241 5244 5248 5252 5255 5259 5262 5265 5269 5273 5277 5281 5286 5291 5296 5300 5305 5310
5232 5228 5223 5219 5215 5210 5206 5201 5197 5192 5188 5184 5180 5177 5175 5172 5170 5168 5166 5165 5164 5164 5164 5165 5167 5169 5171 5173 5173 5175 5176 5177 5179 5180 5182 5184 5186 5188 5190 5192 5195 5197 5199 5202 5205 5207 5210 5213 5215 5218 5221 5224 5226 5229 5232 5235 5238 5241 5244 5247 5251 5254 5258 5261 5265 5269 5272 5276 5280 5285 5290 5295 5300 5305
5233 5228 5224 5220 5216 5212 5208 5203 5199 5195 5190 5186 5182 5179 5176 5174 5171 5169 5167 5165 5164 5164 5163 5163 5165 5167 5169 5171 5173 5174 5175 5176 5178 5179 5181 5182 5184 5186 5188 5191 5193 5195 5198 5200 5203 5205 5208 5210 5213 5215 5218 5221 5223 5226 5229 5232 5235 5238 5240 5244 5247 5250 5254 5257 5261 5264 5268 5271 5275 5280 5285 5289 5294 5300
5233 5229 5225 5221 5217 5214 5210 5206 5201 5197 5193 5189 5185 5181 5178 5175 5173 5171 5168 5166 5165 5164 5163 5163 5163 5164 5167 5169 5171 5172 5174 5175 5176 5178 5179 5181 5183 5185 5187 5189 5191 5193 5195 5198 5200 5203 5205 5208 5210 5213 5215 5218 5220 5223 5226 5228 5231 5234 5237 5240 5243 5247 5250 5253 5256 5260 5263 5267 5271 5275 5280 5284 5290 5296
5233 5229 5225 5221 5218 5214 5211 5207 5203 5199 5195 5191 5188 5184 5180 5177 5174 5172 5170 5168 5166 5164 5163 5163 5163 5163 5164 5166 5168 5170 5172 5173 5175 5176 5177 5179 5181 5183 5185 5187 5189 5191 5193 5195 5198 5200 5202 5205 5207 5209 5212 5214 5217 5219 5222 5225 5228 5231 5234 5237 5240 5243 5246 5249 5252 5255 5259 5263 5267 5271 5275 5280 5285 5291
5232 5228 5225 5221 5217 5214 5211 5208 5204 5200 5196 5193 5189 5186 5182 5179 5176 5173 5171 5169 5167 5165 5164 5163 5162 5162 5163 5164 5165 5167 5169 5171 5172 5174 5175 5177 5178 5180 5182 5184 5186 5188 5190 5192 5195 5197 5199 5201 5204 5206 5209 5211 5213 5216 5219 5221 5224 5227 5230 5233 5236 5239 5242 5245 5248 5251 5255 5259 5263 5267 5271 5275 5280 5285
5231 5228 5224 5221 5217 5214 5211 5208 5204 5201 5198 5194 5190 5187 5184 5181 5178 5175 5172 5170 5168 5166 5165 5163 5162 5162 5162 5162 5163 5164 5166 5168 5169 5171 5173 5174 5176 5177 5179 5181 5183 5185 5187 5189 5191 5194 5196 5198 5200 5203 5205 5207 5210 5212 5215 5218 5220 5223 5226 5229 5232 5235 5238 5241 5244 5248 5251 5255 5259 5262 5266 5271 5275 5280